Loisir ou Compétition : Rejoignez un Club de la Fédération

Résultats

CONCOURS RENE ROBBE

CHAUX NEUVE/LE PRE

FS Dames

Jury de Compétition

Délégué Technique :
FERREUX PASCAL (MJ)
D.T. Adjoint :
 
Dir. Epreuve :
MAZIER JIMMY (MJ)

Caractéristiques de la Piste

Piste :
LE PRE PONCET
Distance :
3.2 km
Point Haut :
 
Point Bas :
 
Montée Tot. :
 
Montée Max. :
 
Homologation :
 

Pénalité Appliquée :
 
Coefficient :
 

Catégorie :
U14
Style :
C
Clt Dos Clt/Cat Code An Nom Prénom Com Club Temps Ecart Points
Classés
1 170 1/U14 FFS2677081 2002 JEANNIER LEONIE MJ AS VERRIERES 13:14.3 00:00.0
2 197 2/U14 FFS2676452 2002 PAGNIER CLOE MJ CHAUX NEUVE 13:26.2 00:11.9
3 173 3/U14 FFS2671188 2002 PELLEGRINI AUGUSTINE MJ OYE-PALLET 13:55.3 00:41.0
4 174 4/U14 FFS2671190 2002 BILLET EMMA MJ OYE-PALLET 13:58.4 00:44.1
5 189 5/U14 FFS2671187 2002 LAHEURTE PERRINE MJ OYE-PALLET 14:01.4 00:47.1
6 196 6/U14 FFS2675805 2002 BESANCON ALICE MJ OLYMP MT DOR 14:08.5 00:54.2
7 167 7/U14 FFS2671189 2002 DESCOURVIERES EMILIE MJ OYE-PALLET 14:17.2 01:02.9
8 169 8/U14 FFS2675804 2002 HAUCK MELISSA MJ OLYMP MT DOR 14:36.4 01:22.1
9 175 9/U14 FFS2677329 2002 SALVI JEANNE MJ A.S MOUTHE 14:50.1 01:35.8
10 171 10/U14 FFS2683259 2003 ARDIET ELEONORE MJ A.S MOUTHE 14:50.2 01:35.9
11 168 11/U14 FFS2676442 2002 BLONDEAU ANNA MJ CHAUX NEUVE 14:55.1 01:40.8
12 180 12/U14 FFS2676115 2003 MAUGAIN FLAVIE MJ ES SAUGETTE 14:58.1 01:43.8
13 194 13/U14 FFS2676811 2003 BAVEREL LOANE MJ ES SAUGETTE 15:03.1 01:48.8
14 176 14/U14 FFS2670848 2002 SIMON ANTOINETTE MJ SC FRASNE DR 15:04.9 01:50.6
15 198 15/U14 FFS2665748 2002 LAURENCE COLINE MJ CSR PONTARLI 15:05.3 01:51.0
16 193 16/U14 FFS2676336 2003 TREAND EMMA MJ SC FRASNE DR 15:21.2 02:06.9
17 164 17/U14 FFS2678583 2002 BOUVERET MARION MJ BOIS D'AMONT 15:31.4 02:17.1
18 163 18/U14 FFS2682602 2003 LEGENDRE TYFAINE MJ A.S MOUTHE 15:37.0 02:22.7
19 161 19/U14 FFS2671184 2002 BESANCENET ZELIE MJ OYE-PALLET 15:37.7 02:23.4
20 188 20/U14 FFS2676339 2003 NICOD MARION MJ SC FRASNE DR 15:45.3 02:31.0
21 192 21/U14 FFS2681172 2003 SALVI LISA MJ OYE-PALLET 15:50.3 02:36.0
22 190 22/U14 FFS2677085 2003 PELLEGRINI LILLY MJ OYE-PALLET 16:02.4 02:48.1
23 172 23/U14 FFS2664314 2002 BARON FIONA MJ VAL MORTEAU 16:04.7 02:50.4
24 162 24/U14 FFS2671377 2002 GAGELIN AGATHE MJ ES SAUGETTE 16:15.9 03:01.6
25 165 25/U14 FFS2671251 2003 LEMAIRE LUCIE MJ CSR PONTARLI 16:25.5 03:11.2
26 195 26/U14 FFS2676984 2002 DUSSAUSSOY EMMA MJ VAL MORTEAU 16:31.6 03:17.3
27 187 27/U14 FFS2670617 2002 CRETENET LEA MJ ES SAUGETTE 16:33.6 03:19.3
28 183 28/U14 FFS2685603 2003 PREVALET STEPHANIE MJ A.S MOUTHE 16:46.0 03:31.7
29 191 29/U14 FFS2682509 2003 PERRIN EVA MJ AS VERRIERES 16:48.2 03:33.9
30 184 30/U14 FFS2676435 2003 MOUGIN LUCIE MJ ES SAUGETTE 16:53.2 03:38.9
31 166 31/U14 FFS2671192 2002 MONIER AMANDINE MJ OYE-PALLET 16:57.8 03:43.5
32 181 32/U14 FFS2650015 2003 MOREL FLAVIE MJ SC LESFOURGS 17:02.4 03:48.1
33 178 33/U14 FFS2682542 2003 LECOULTRE LARA MJ OLYMP MT DOR 17:16.6 04:02.3
34 179 34/U14 FFS2676449 2003 KOGLER EMELINE MJ CSR PONTARLI 17:38.7 04:24.4
35 182 35/U14 FFS2682511 2003 FAIVRE MARGOT MJ AS VERRIERES 18:05.3 04:51.0
36 186 36/U14 FFS2681170 2003 ROUSSEL JEANNE MJ OYE-PALLET 18:10.1 04:55.8
37 185 37/U14 FFS2682383 2003 AUGER EMMA MJ AS VERRIERES 18:35.7 05:21.4
38 177 38/U14 FFS2671260 2003 ALPY LOU MJ CSR PONTARLI 21:15.0 08:00.7